{"data":{"norad_id":63161,"epoch":"2026-05-25T04:22:49.390176Z","epoch_age_seconds":62339,"freshness":"FRESH","line1":"1 63161U 25046C   26145.18251609  .00000041  00000+0  45078-4 0  9996","line2":"2 63161  88.9691 303.2042 0016406  21.7763 338.4083 13.51003817 69415","mean_motion":13.51003817,"eccentricity":0.0016406,"inclination_deg":88.9691,"raan_deg":303.2042,"arg_perigee_deg":21.7763,"mean_anomaly_deg":338.4083,"bstar":4.5078e-5,"rev_number":6941,"period_min":106.58741166236,"perigee_km":1056.3504955635,"apogee_km":1080.7846225627,"semimajor_km":7446.7045590631,"source":"CELESTRAK","updated_at":"2026-05-25T13:38:03.538096Z"}}